Aérodrome :
LOGIN :

S'inscrire | Disclaimer

   EN    FR    IT 

 










Légende :    VFR   VFR Marginal   IFR   IFR Intensif   IFR Très Intensif
Visi : 
Plafond : 
>= 8 km
>= 3000ft
5 à 8 km
1000 à 3000 ft
1500m à 5 km
500 à 1000 ft
800 à 1500m
200 à 500 ft
< 800m
< 200 ft
Symboles :   Orages  Brouillard  Fortes neiges  Fortes précipitations  Vent > 20 kt
SIGMETs :   Divers  Orages  Givrage  Turbulence  Onde Orograph.  Cendres Volcan.






- Altitude de l'aérodrome : 48 ft
- Code IATA : PSR


LIBP - Abruzzo Pescara

DERNIER METAR :
  • 222050Z AUTO VRB02KT 9999 BKN160/// 20/18 Q1013

METARs EXPIRÉS :
  • 222020Z AUTO VRB01KT 9999 FEW120/// 20/17 Q1013
  • 221950Z AUTO 29003KT 260V330 9999 FEW200/// 21/18 Q1013
  • 221920Z AUTO 24003KT 9999 SCT020/// 21/18 Q1013
  • 221850Z AUTO 07003KT 020V150 9999 NCD 21/18 Q1013
  • 221820Z AUTO 34005KT 9999 FEW023/// 22/18 Q1013

TAF TAF LIBP
Valide du 22 à 18h jusqu'au 23 à 18h UTC


221745Z 2218/2318 VRB04KT 9999 SCT030



MET'MAP, la Météo Aéronautique d'un coup d'oeil ! - Copyright ORBIFLY Décembre 2007 - Disclaimer

ORBIFLY MET'MAP TEAM :

Programmation & Développement : Alexandra Zaïnal
Sur une idée originale de : Baudouin d'Aumeries
Assistance à la programmation : Marc-Olivier Méhu
Soutien technique & logistique : Manuel Goepfert

Contact : metmap@orbifly.com




SOURCES & CREDITS :

   NOAA